{"data":{"norad_id":63379,"intl_designator":"2025-063S","name":"STARLINK-33636","alt_names":[],"object_type":"PAYLOAD","status":"ACTIVE","operator":null,"country":"US","launch_date":"2025-03-26","launch_site_code":"AFWTR","launch_vehicle":null,"mission":null,"orbit_class":"UNKNOWN","rcs_meters":null,"size_class":null,"mass_kg":null,"dimensions":null,"purposes":["comms"],"wikipedia_slug":null,"has_3d_model":false,"image_url":null,"decayed_at":null,"tle_current":{"epoch":"2026-05-25T03:24:32.135040Z","epoch_age_seconds":62495,"freshness":"FRESH","line1":"1 63379U 25063S   26145.14203860  .00029387  00000+0  94194-3 0  9994","line2":"2 63379  53.1613  56.7183 0004261  77.0615 283.0862 15.32137226 66427","mean_motion":15.32137226,"eccentricity":0.0004261,"inclination_deg":53.1613,"raan_deg":56.7183,"arg_perigee_deg":77.0615,"mean_anomaly_deg":283.0862,"bstar":0.00094194,"rev_number":6642,"period_min":93.986359417652,"perigee_km":466.5192059647,"apogee_km":472.35470849105,"semimajor_km":6847.5739572279,"source":"CELESTRAK","updated_at":"2026-05-25T13:38:19.965167Z"}}}